Regional Weather Roundup
Issued by NWS

Home | Current Version | Previous Version | Graphics & Text | Print | Product List | Glossary On
Versions: 1 2 3 4 5 6 7 8 9 10 11 12 13 14 15 16 17 18 19 20 21 22 23 24 25 26 27 28 29 30 31 32 33 34 35 36 37 38 39 40 41 42 43 44 45 46 47 48 49 50
000
ASUS44 KMEG 311410
RWRTN
TENNESSEE HOURLY STATE WEATHER ROUNDUP
NATIONAL WEATHER SERVICE MEMPHIS TN
900 AM CDT THU JUL 31 2014

TNZ002-004-019-021-049-052-054-088>092-311500-
WEST TENNESSEE

CITY           SKY/WX    TMP DP  RH WIND       PRES   REMARKS
MEMPHIS INTL   CLOUDY    72  66  83 NW8       30.11R
NWS MEMPHIS      N/A     71 N/A N/A MISG        N/A
JACKSON        CLOUDY    72  65  78 CALM      30.11S
DYERSBURG      CLOUDY    70  59  68 CALM      30.11S
UNION CITY     CLOUDY    68  64  88 VRB3      30.10S
PARIS          PTSUNNY   72  62  70 SW3       30.12S
LEXINGTON      MOSUNNY   68  63  83 CALM      30.11S
SAVANNAH       PTSUNNY   70  64  83 CALM      30.11S
$$

TNZ008-025-027-028-033-062-065-066-311500-
NORTH MIDDLE TENNESSEE

CITY           SKY/WX    TMP DP  RH WIND       PRES   REMARKS
NASHVILLE      PTSUNNY   72  60  66 E5        30.12S
DICKSON        PTSUNNY   70  61  73 CALM      30.12R
PORTLAND       SUNNY     70  61  73 E3        30.12R
CLARKSVILLE    SUNNY     72  59  63 E5        30.12R
LEBANON        PTSUNNY   66  60  81 CALM      30.11R
SMYRNA         CLOUDY    68  63  84 CALM      30.13S
MURFREESBORO   PTSUNNY   66  62  87 CALM      30.12R
COOKEVILLE     SUNNY     66  63  88 CALM      30.13R
LIVINGSTON       N/A     67  59  75 CALM      30.14R
GALLATIN       PTSUNNY   68  63  84 CALM      30.13R
CROSSVILLE     CLOUDY    65  59  81 CALM      30.16R
$$

TNZ061-075-076-078-094-096-097-311500-
SOUTH MIDDLE TENNESSEE

CITY           SKY/WX    TMP DP  RH WIND       PRES   REMARKS
LEWISBURG      PTSUNNY   66  60  81 CALM      30.12R
FAYETTEVILLE   SUNNY     66  61  82 NE9       30.11S
TULLAHOMA      SUNNY     66  61  82 NE3       30.13S
WINCHESTER     SUNNY     64  61  88 CALM      30.12S
MCMINNVILLE    SUNNY     64  64 100 CALM      30.13R
COLUMBIA       SUNNY     66  63  88 CALM      30.11S
SHELBYVILLE    SUNNY     66  63  88 CALM      30.13S
$$

TNZ017-018-042-046-047-311500-
NORTHEAST TENNESSEE

CITY           SKY/WX    TMP DP  RH WIND       PRES   REMARKS
TRI CITIES     PTSUNNY   65  57  75 E3        30.15F
ELIZABETHTON   SUNNY     64  57  77 CALM        N/A
$$

TNZ012-013-036-069-073-074-311500-
CENTRAL EAST TENNESSEE

CITY           SKY/WX    TMP DP  RH WIND       PRES   REMARKS
KNOXVILLE      CLOUDY    67  61  81 E6        30.11S
OAK RIDGE      CLOUDY    67  62  84 NE6       30.14R
GATLINBURG     SUNNY     64  59  82 CALM      30.12S
MORRISTOWN     SUNNY     66  59  77 E7        30.14S
$$

TNZ083-085-099-311500-
SOUTHEAST TENNESSEE

CITY           SKY/WX    TMP DP  RH WIND       PRES   REMARKS
CHATTANOOGA    CLOUDY    70  61  73 N6        30.10S
$$

SKY/WX REPORTED AS FAIR MEANS FEW OR NO CLOUDS BELOW
12 THOUSAND FEET.



USA.gov is the U.S. government's official web portal to all federal, state and local government web resources and services.